TimeEEST,TemperatureF,Dew PointF,Humidity,Sea Level PressureIn,VisibilityMPH,Wind Direction,Wind SpeedMPH,Gust SpeedMPH,PrecipitationIn,Events,Conditions,WindDirDegrees,DateUTC
12:50 AM,41.0,35.6,81,30.24,-9999.0,SE,4.6,-,N/A,,Clear,140,2012-10-12 21:50:00
1:50 AM,42.8,37.4,81,30.24,-9999.0,ESE,5.8,-,N/A,,Clear,120,2012-10-12 22:50:00
2:50 AM,39.2,35.6,87,30.21,-9999.0,ESE,8.1,-,N/A,,Clear,110,2012-10-12 23:50:00
3:00 AM,42,39,86,,9,Calm,Calm,,,,,,2012-10-13 00:00:00
3:50 AM,37.4,35.6,93,30.21,-9999.0,ESE,9.2,-,N/A,,Clear,110,2012-10-13 00:50:00
4:50 AM,37.4,35.6,93,30.21,-9999.0,ESE,3.5,-,N/A,,Clear,110,2012-10-13 01:50:00
5:50 AM,41.0,39.2,93,30.24,-9999.0,ESE,6.9,-,N/A,,Clear,120,2012-10-13 02:50:00
6:50 AM,39.2,37.4,93,30.24,-9999.0,East,5.8,-,N/A,,Clear,90,2012-10-13 03:50:00
7:50 AM,41.0,39.2,93,30.24,6.2,East,5.8,-,N/A,,Scattered Clouds,100,2012-10-13 04:50:00
8:50 AM,48.2,42.8,82,30.24,6.2,ESE,6.9,-,N/A,,Mostly Cloudy,110,2012-10-13 05:50:00
9:00 AM,45,40,77,,9,Calm,Calm,,,,Partly Cloudy,,2012-10-13 06:00:00
9:50 AM,50.0,41.0,71,30.24,6.2,ESE,6.9,-,N/A,,Mostly Cloudy,110,2012-10-13 06:50:00
10:50 AM,51.8,41.0,67,30.27,6.2,SSE,5.8,-,N/A,,Mostly Cloudy,150,2012-10-13 07:50:00
11:50 AM,55.4,39.2,54,30.24,6.2,SSE,8.1,-,N/A,,Mostly Cloudy,150,2012-10-13 08:50:00
12:50 PM,55.4,37.4,51,30.24,6.2,South,4.6,-,N/A,,Mostly Cloudy,180,2012-10-13 09:50:00
1:50 PM,59.0,37.4,45,30.21,6.2,Variable,2.3,-,N/A,,Mostly Cloudy,0,2012-10-13 10:50:00
3:00 PM,63,38,27,,9,ESE,2.3,,,,Partly Cloudy,120,2012-10-13 12:00:00
3:50 PM,59.0,37.4,45,30.21,6.2,South,5.8,-,N/A,,Mostly Cloudy,170,2012-10-13 12:50:00
4:50 PM,57.2,37.4,48,30.21,6.2,SSE,3.5,-,N/A,,Mostly Cloudy,150,2012-10-13 13:50:00
5:50 PM,53.6,39.2,58,30.21,6.2,SE,4.6,-,N/A,,Mostly Cloudy,140,2012-10-13 14:50:00
6:50 PM,51.8,37.4,58,30.21,6.2,ESE,3.5,-,N/A,,Mostly Cloudy,120,2012-10-13 15:50:00
7:50 PM,48.2,37.4,66,30.21,6.2,Calm,Calm,-,N/A,,Mostly Cloudy,0,2012-10-13 16:50:00
8:50 PM,46.4,35.6,66,30.21,6.2,Calm,Calm,-,N/A,,Mostly Cloudy,0,2012-10-13 17:50:00
9:00 PM,51,42,63,,9,Calm,Calm,,,,,,2012-10-13 18:00:00
9:50 PM,44.6,37.4,76,30.21,6.2,SE,4.6,-,N/A,,Mostly Cloudy,140,2012-10-13 18:50:00
10:50 PM,44.6,39.2,81,30.21,6.2,ESE,4.6,-,N/A,,Mostly Cloudy,120,2012-10-13 19:50:00
11:50 PM,46.4,39.2,76,30.21,6.2,ESE,4.6,-,N/A,,Mostly Cloudy,120,2012-10-13 20:50:00